Flag Island, MN

5:28 AM CDT on May 25, 2017 (GMT -0500)
Flag Island

Weather History for KFGN - May, 2013

Change the Weather History Date:

Monday, May 20, 2013

  Actual Average Record
Temperature  
Mean Temperature 48 °F -  
Max Temperature 53 °F 55 °F 75 °F (2011)
Min Temperature 44 °F 41 °F 33 °F (1997)
Degree Days  
Heating Degree Days 16    
Moisture  
Dew Point 47 °F    
Average Humidity 89    
Maximum Humidity 94    
Minimum Humidity 82    
Precipitation  
Precipitation 1.34 in - - ()
Sea Level Pressure  
Sea Level Pressure 29.77 in    
Wind  
Wind Speed 19 mph (ENE)    
Max Wind Speed 29 mph    
Max Gust Speed 43 mph    
Visibility 8 miles    
Events Rain    
Averages and records for this station are not official NWS values.
T = Trace of Precipitation, MM = Missing Value Source: NWS Daily Summary

Daily Weather History Graph

Daily Weather History Graph

Search for Another Location

Airport or City:

Trip Planner

Search our weather history database for the weather conditions in past years. The results will help you decide how hot, cold, wet, or windy it might be!

Date:

Astronomy

May. 20, 2013 Rise Set
Actual Time 5:29 AM CDT 9:03 PM CDT
Civil Twilight 4:49 AM CDT 9:43 PM CDT
Nautical Twilight 3:56 AM CDT 10:36 PM CDT
Astronomical Twilight 2:43 AM CDT 11:52 PM CDT
Moon 3:47 PM CDT (5/20) 2:52 AM CDT (5/20)
Length of Visible Light 16h 53m
Length of Day
15h 34m
Waxing Gibbous, 75% of the Moon is Illuminated
May 20
Waxing Gibbous
May 24
Full
May 31
Last Quarter
Jun 8
New
Jun 16
First Quarter

Hourly Weather History & Observations

Time (CDT) Temp. Windchill Dew Point Humidity Pressure Visibility Wind Dir Wind Speed Gust Speed Precip Events Conditions
12:13 AM 53.6 °F - 50.0 °F 88% 29.81 in 10.0 mi ENE 13.8 mph 20.7 mph N/A   Overcast
12:33 AM 53.6 °F - 50.0 °F 88% 29.81 in 10.0 mi ENE 16.1 mph 23.0 mph N/A Rain Light Rain
12:54 AM 51.8 °F - 50.0 °F 94% 29.80 in 10.0 mi NE 16.1 mph 23.0 mph N/A   Overcast
1:13 AM 51.8 °F - 50.0 °F 94% 29.80 in 10.0 mi ENE 12.7 mph - N/A   Overcast
1:33 AM 51.8 °F - 50.0 °F 94% 29.80 in 10.0 mi NE 13.8 mph 19.6 mph N/A   Overcast
1:53 AM 51.8 °F - 48.2 °F 88% 29.80 in 10.0 mi NE 15.0 mph 20.7 mph N/A   Overcast
2:13 AM 51.8 °F - 48.2 °F 88% 29.80 in 10.0 mi NE 15.0 mph - N/A   Overcast
2:33 AM 51.8 °F - 48.2 °F 88% 29.79 in 10.0 mi ENE 17.3 mph 24.2 mph N/A   Overcast
2:53 AM 51.8 °F - 48.2 °F 88% 29.78 in 10.0 mi NE 13.8 mph 23.0 mph N/A   Overcast
3:13 AM 51.8 °F - 48.2 °F 88% 29.78 in 10.0 mi NE 17.3 mph 21.9 mph N/A Rain Rain
3:33 AM 51.8 °F - 48.2 °F 88% 29.77 in 10.0 mi NE 17.3 mph - N/A   Overcast
3:53 AM 51.8 °F - 48.2 °F 88% 29.77 in 10.0 mi NE 18.4 mph 24.2 mph N/A   Light Drizzle
4:13 AM 51.8 °F - 48.2 °F 88% 29.77 in 10.0 mi NE 18.4 mph - 0.01 in Rain Light Rain
4:33 AM 51.8 °F - 48.2 °F 88% 29.76 in 10.0 mi NE 19.6 mph 25.3 mph 0.02 in Rain Rain
4:54 AM 51.8 °F - 48.2 °F 88% 29.76 in 10.0 mi NE 21.9 mph 27.6 mph 0.04 in Rain Light Rain
5:13 AM 51.8 °F - 48.2 °F 88% 29.75 in 10.0 mi NE 20.7 mph 26.5 mph 0.03 in Rain Heavy Rain
5:33 AM 51.8 °F - 48.2 °F 88% 29.75 in 10.0 mi ENE 21.9 mph 28.8 mph 0.03 in   Overcast
5:54 AM 51.8 °F - 48.2 °F 88% 29.74 in 10.0 mi NE 18.4 mph 26.5 mph 0.03 in   Overcast
6:13 AM 51.8 °F - 48.2 °F 88% 29.74 in 10.0 mi NE 20.7 mph 31.1 mph 0.01 in Rain Light Rain
6:54 AM 51.8 °F - 48.2 °F 88% 29.74 in 10.0 mi ENE 24.2 mph 31.1 mph 0.18 in Rain Rain
7:13 AM 51.8 °F - 48.2 °F 88% 29.74 in 10.0 mi ENE 19.6 mph 27.6 mph N/A Rain Light Rain
7:33 AM 51.8 °F - 48.2 °F 88% 29.73 in 10.0 mi ENE 20.7 mph 29.9 mph 0.02 in Rain Rain
7:54 AM 51.8 °F - 48.2 °F 88% 29.73 in 7.0 mi ENE 17.3 mph 31.1 mph 0.04 in Rain Light Rain
8:13 AM 51.8 °F - 48.2 °F 88% 29.74 in 10.0 mi ENE 19.6 mph 33.4 mph 0.02 in Rain Light Rain
8:33 AM 51.8 °F - 48.2 °F 88% 29.74 in 10.0 mi ENE 23.0 mph 32.2 mph 0.04 in Rain Light Rain
8:54 AM 51.8 °F - 48.2 °F 88% 29.74 in 10.0 mi ENE 24.2 mph 29.9 mph 0.06 in Rain Rain
9:13 AM 51.8 °F - 48.2 °F 88% 29.75 in 10.0 mi ENE 20.7 mph 33.4 mph 0.01 in Rain Rain
9:33 AM 51.8 °F - 48.2 °F 88% 29.75 in 10.0 mi ENE 19.6 mph 29.9 mph 0.06 in Rain Rain
9:53 AM 51.8 °F - 48.2 °F 88% 29.74 in 7.0 mi ENE 20.7 mph 28.8 mph 0.11 in Rain Heavy Rain
10:13 AM 51.8 °F - 48.2 °F 88% 29.75 in 10.0 mi ENE 20.7 mph 35.7 mph 0.04 in Rain Heavy Rain
10:34 AM 51.8 °F - 48.2 °F 88% 29.74 in 10.0 mi NE 20.7 mph 31.1 mph 0.09 in Rain Rain
10:53 AM 51.8 °F - 48.2 °F 88% 29.74 in 7.0 mi NE 25.3 mph 32.2 mph 0.12 in Rain Light Rain
11:13 AM 51.8 °F - 48.2 °F 88% 29.74 in 7.0 mi ENE 19.6 mph 32.2 mph 0.02 in Rain Rain
11:33 AM 51.8 °F - 48.2 °F 88% 29.74 in 10.0 mi ENE 24.2 mph 32.2 mph 0.04 in Rain Light Rain
11:53 AM 51.8 °F - 48.2 °F 88% 29.75 in 10.0 mi ENE 21.9 mph 31.1 mph 0.06 in Rain Rain
12:14 PM 51.8 °F - 48.2 °F 88% 29.74 in 10.0 mi ENE 21.9 mph 42.6 mph 0.03 in Rain Rain
12:33 PM 51.8 °F - 48.2 °F 88% 29.74 in 7.0 mi ENE 28.8 mph 42.6 mph 0.08 in Rain Rain
12:53 PM 51.8 °F - 48.2 °F 88% 29.74 in 7.0 mi NE 23.0 mph 32.2 mph 0.10 in Rain Rain
1:14 PM 51.8 °F - 48.2 °F 88% 29.74 in 4.0 mi ENE 19.6 mph 39.1 mph 0.02 in Rain Light Rain
1:33 PM 51.8 °F - 48.2 °F 88% 29.74 in 10.0 mi ENE 20.7 mph 36.8 mph 0.05 in Rain Light Rain
1:54 PM 51.8 °F - 46.4 °F 82% 29.74 in 7.0 mi ENE 25.3 mph 36.8 mph 0.10 in Rain Rain
2:13 PM 51.8 °F - 46.4 °F 82% 29.74 in 10.0 mi ENE 20.7 mph 34.5 mph 0.02 in Rain Light Rain
2:33 PM 50.0 °F - 46.4 °F 87% 29.75 in 5.0 mi ENE 24.2 mph 38.0 mph 0.04 in Rain Light Rain
2:53 PM 50.0 °F - 46.4 °F 87% 29.75 in 7.0 mi ENE 24.2 mph 36.8 mph 0.06 in Rain Light Rain
3:13 PM 50.0 °F - 46.4 °F 87% 29.75 in 7.0 mi ENE 21.9 mph 36.8 mph 0.02 in Rain Light Rain
3:34 PM 50.0 °F - 46.4 °F 87% 29.75 in 5.0 mi ENE 24.2 mph 32.2 mph 0.04 in Rain Light Rain
3:53 PM 50.0 °F - 46.4 °F 87% 29.75 in 7.0 mi ENE 24.2 mph 35.7 mph 0.06 in Rain Light Rain
4:13 PM 50.0 °F - 46.4 °F 87% 29.75 in 7.0 mi ENE 23.0 mph 34.5 mph 0.02 in Rain Light Rain
4:33 PM 50.0 °F - 46.4 °F 87% 29.75 in 5.0 mi ENE 19.6 mph 33.4 mph 0.05 in Rain Light Rain
4:53 PM 48.2 °F - 46.4 °F 93% 29.76 in 5.0 mi ENE 19.6 mph 33.4 mph 0.09 in Rain Rain
5:13 PM 48.2 °F - 46.4 °F 93% 29.76 in 4.0 mi ENE 21.9 mph 32.2 mph 0.01 in Rain Light Rain
5:33 PM 48.2 °F - 46.4 °F 93% 29.77 in 4.0 mi ENE 20.7 mph 28.8 mph 0.04 in Rain Light Rain
5:53 PM 48.2 °F - 46.4 °F 93% 29.77 in 10.0 mi ENE 21.9 mph 34.5 mph 0.05 in Rain Light Rain
6:13 PM 48.2 °F - 46.4 °F 93% 29.77 in 3.0 mi ENE 20.7 mph 29.9 mph 0.04 in Rain Rain
6:33 PM 48.2 °F - 46.4 °F 93% 29.77 in 5.0 mi ENE 21.9 mph 28.8 mph 0.07 in Rain Light Rain
6:54 PM 48.2 °F - 46.4 °F 93% 29.77 in 5.0 mi ENE 21.9 mph 32.2 mph 0.12 in Rain Rain
7:13 PM 48.2 °F - 46.4 °F 93% 29.78 in 10.0 mi ENE 23.0 mph 32.2 mph 0.05 in Rain Rain
7:33 PM 48.2 °F - 46.4 °F 93% 29.78 in 5.0 mi ENE 21.9 mph 32.2 mph 0.09 in Rain Rain
7:54 PM 48.2 °F - 46.4 °F 93% 29.79 in 7.0 mi ENE 21.9 mph 31.1 mph 0.11 in Rain Rain
8:13 PM 48.2 °F - 46.4 °F 93% 29.79 in 3.0 mi ENE 20.7 mph 28.8 mph 0.01 in   Light Drizzle
8:33 PM 48.2 °F - 44.6 °F 87% 29.80 in 3.0 mi ENE 18.4 mph 31.1 mph 0.01 in   Overcast
8:54 PM 48.2 °F - 44.6 °F 87% 29.80 in 3.0 mi ENE 17.3 mph 27.6 mph 0.01 in   Overcast
9:13 PM 46.4 °F 39.5 °F 44.6 °F 93% 29.81 in 4.0 mi ENE 17.3 mph 25.3 mph N/A   Light Drizzle
9:33 PM 46.4 °F 39.0 °F 44.6 °F 93% 29.83 in 5.0 mi NE 19.6 mph 27.6 mph N/A   Overcast
9:54 PM 46.4 °F 38.5 °F 44.6 °F 93% 29.83 in 7.0 mi ENE 21.9 mph 31.1 mph N/A   Overcast
10:13 PM 46.4 °F 40.4 °F 42.8 °F 87% 29.84 in 10.0 mi ENE 13.8 mph 31.1 mph N/A   Overcast
10:33 PM 46.4 °F 39.5 °F 42.8 °F 87% 29.84 in 10.0 mi ENE 17.3 mph 26.5 mph N/A   Overcast
10:54 PM 46.4 °F 38.5 °F 42.8 °F 87% 29.84 in 10.0 mi NE 21.9 mph 29.9 mph N/A   Overcast
11:13 PM 44.6 °F 36.6 °F 42.8 °F 93% 29.85 in 10.0 mi ENE 19.6 mph 27.6 mph N/A   Overcast
11:33 PM 44.6 °F 36.6 °F 42.8 °F 93% 29.85 in 10.0 mi ENE 19.6 mph 27.6 mph N/A   Overcast
11:54 PM 44.6 °F 36.4 °F 41.0 °F 87% 29.85 in 10.0 mi ENE 20.7 mph 25.3 mph N/A   Overcast